| time (UTC) | temp C | wind direction | speed KPH | gust KPH | rain 1hr cm | rain 24hr cm | rain mn cm | humidity % | barometer mb |
| 20260504081504 | 1 | 234 | 0.0 | 1.6 | 0.00 | 0.00 | 0.00 | 81 | 1014.0 |
| 20260504044504 | 4 | 210 | 3.2 | 11.3 | 0.00 | 0.00 | 0.00 | 75 | 1013.8 |
| 20260504043004 | 4 | 246 | 3.2 | 11.3 | 0.00 | 0.00 | 0.00 | 75 | 1013.5 |
| 20260504041504 | 4 | 237 | 1.6 | 9.7 | 0.00 | 0.00 | 0.00 | 75 | 1013.5 |
| 20260504040004 | 4 | 230 | 3.2 | 4.8 | 0.00 | 0.00 | 0.00 | 75 | 1013.4 |
| 20260504034504 | 3 | 234 | 1.6 | 4.8 | 0.00 | 0.00 | 0.00 | 76 | 1013.3 |
| 20260504033004 | 3 | 237 | 3.2 | 4.8 | 0.00 | 0.00 | 0.00 | 76 | 1013.3 |
| 20260504031504 | 3 | 222 | 3.2 | 9.7 | 0.00 | 0.00 | 0.00 | 75 | 1013.3 |
| 20260504024504 | 4 | 245 | 3.2 | 4.8 | 0.00 | 0.00 | 0.00 | 74 | 1013.4 |
| 20260504021503 | 5 | 246 | 1.6 | 8.0 | 0.00 | 0.00 | 0.00 | 71 | 1013.4 |
| 20260504014504 | 5 | 248 | 3.2 | 9.7 | 0.00 | 0.00 | 0.00 | 67 | 1013.2 |
| 20260504013004 | 6 | 245 | 1.6 | 4.8 | 0.00 | 0.00 | 0.00 | 64 | 1013.1 |
| 20260504011504 | 7 | 241 | 1.6 | 4.8 | 0.00 | 0.00 | 0.00 | 63 | 1013.0 |
| 20260504010004 | 7 | 238 | 3.2 | 4.8 | 0.00 | 0.00 | 0.00 | 60 | 1012.8 |
| 20260504004503 | 8 | 249 | 1.6 | 4.8 | 0.00 | 0.00 | 0.00 | 56 | 1012.9 |
| 20260504000004 | 10 | 253 | 3.2 | 9.7 | 0.00 | 0.00 | 0.00 | 52 | 1012.4 |
| 20260503234504 | 10 | 272 | 3.2 | 19.3 | 0.00 | 0.00 | 0.00 | 50 | 1012.3 |
| 20260503233004 | 10 | 232 | 3.2 | 14.5 | 0.00 | 0.00 | 0.00 | 49 | 1012.1 |
| 20260503231504 | 11 | 245 | 4.8 | 16.1 | 0.00 | 0.00 | 0.00 | 48 | 1012.1 |
| 20260503230003 | 11 | 278 | 4.8 | 16.1 | 0.00 | 0.00 | 0.00 | 47 | 1012.0 |
| 20260503224504 | 12 | 305 | 3.2 | 19.3 | 0.00 | 0.00 | 0.00 | 46 | 1012.0 |
| 20260503223003 | 12 | 249 | 6.4 | 22.5 | 0.00 | 0.00 | 0.00 | 45 | 1012.0 |
| 20260503221504 | 12 | 270 | 4.8 | 16.1 | 0.00 | 0.00 | 0.00 | 45 | 1011.9 |
| 20260503220004 | 12 | 312 | 3.2 | 14.5 | 0.00 | 0.00 | 0.00 | 45 | 1011.9 |
| 20260503214504 | 12 | 307 | 3.2 | 16.1 | 0.00 | 0.00 | 0.00 | 44 | 1011.9 |
| 20260503213004 | 12 | 319 | 8.0 | 25.7 | 0.00 | 0.00 | 0.00 | 42 | 1011.7 |
| 20260503210003 | 12 | 292 | 8.0 | 24.1 | 0.00 | 0.00 | 0.00 | 43 | 1011.6 |
| 20260503204504 | 12 | 295 | 4.8 | 19.3 | 0.00 | 0.00 | 0.00 | 41 | 1011.5 |
| 20260503203003 | 13 | 232 | 6.4 | 24.1 | 0.00 | 0.00 | 0.00 | 39 | 1011.4 |
| 20260503201504 | 13 | 245 | 8.0 | 22.5 | 0.00 | 0.00 | 0.00 | 40 | 1011.8 |
| 20260503200004 | 13 | 278 | 11.3 | 27.4 | 0.00 | 0.00 | 0.00 | 38 | 1011.8 |
| 20260503193004 | 12 | 328 | 8.0 | 24.1 | 0.00 | 0.00 | 0.00 | 42 | 1012.2 |
| 20260503191504 | 13 | 339 | 8.0 | 22.5 | 0.00 | 0.00 | 0.00 | 40 | 1012.4 |
| 20260503190004 | 12 | 277 | 4.8 | 24.1 | 0.00 | 0.00 | 0.00 | 42 | 1012.5 |
| 20260503184504 | 12 | 263 | 4.8 | 27.4 | 0.00 | 0.00 | 0.00 | 43 | 1012.8 |
| 20260503183003 | 11 | 10 | 9.7 | 33.8 | 0.00 | 0.00 | 0.00 | 44 | 1012.9 |
| 20260503181505 | 11 | 313 | 4.8 | 19.3 | 0.00 | 0.00 | 0.00 | 43 | 1013.1 |
| 20260503180004 | 11 | 300 | 9.7 | 20.9 | 0.00 | 0.00 | 0.00 | 44 | 1013.1 |
| 20260503174504 | 12 | 304 | 4.8 | 35.4 | 0.00 | 0.00 | 0.00 | 44 | 1013.2 |
| 20260503173004 | 10 | 304 | 8.0 | 20.9 | 0.00 | 0.00 | 0.00 | 45 | 1013.2 |
| 20260503171503 | 10 | 256 | 6.4 | 33.8 | 0.00 | 0.00 | 0.00 | 44 | 1013.4 |